Location: Les Salelles
(44.4192°N, 4.1044°E)
Time: 16:00:03
(UTC+00:00)

Lacrosse 5 - Pass Details

Date: 20 January 2021
Orbit: 715 x 724 km, 57.0° (Epoch: 22 February)

Event Time Altitude Azimuth Distance (km) Brightness Sun altitude
Rises 19:16:57 0° 308° (NW) 3,122 5.9 -28.3°
Reaches altitude 10° 19:19:23 10° 303° (WNW) 2,199 5.0 -28.7°
Maximum altitude 19:24:15 49° 229° (SW) 925 2.6 -29.6°
Enters shadow 19:24:16 49° 229° (SW) 925 2.6 -29.6°
